Retour au catalogue

DELTA 1 R/B

ActifPO
NORAD 3670·ROCKET BODY·🇺🇸 United States

Lancé Jan 30, 1969 depuis Vandenberg Space Force Base

Loading…

Prochains Passages (prochaines 24 heures)

TLE

FraisSource: Space-Track

Époque: Sep 14, 2026, 07:17 UTC

1 03670U 69009B   26257.30349367  .00000330  00000-0  20726-3 0  9993
2 03670  88.4084  95.0861 1630748 100.6606 278.1557 11.46806733389416

Suivez DELTA 1 R/B en temps réel avec AllMySat

Download on the App Store